This is the latest recevied weather packets stored in our database for station/object IONIA-WX. If no packets are shown the sender has not sent any weather packets the latest 1 day(s).
| Time | Temp. | Humidity | Pressure | Rain* | Wind** | Luminosity | Snow |
|---|---|---|---|---|---|---|---|
| 1778055319 | 3.89° C | 68% | 979.9 hPa | 0 mm | 3.13 m/s, 315° | - | - |
| 1778054447 | 4.44° C | 68% | 979.9 hPa | 0 mm | 3.13 m/s, 315° | - | - |
| 1778053519 | 4.44° C | 69% | 980 hPa | 0 mm | 3.58 m/s, 316° | - | - |
| 1778052637 | 4.44° C | 69% | 980 hPa | 0 mm | 3.58 m/s, 310° | - | - |
| 1778051719 | 5° C | 69% | 980 hPa | 0 mm | 3.13 m/s, 311° | - | - |
| 1778050840 | 5° C | 69% | 980 hPa | 0 mm | 3.13 m/s, 302° | - | - |
| 1778049919 | 5° C | 69% | 980.2 hPa | 0 mm | 2.68 m/s, 312° | - | - |
| 1778049036 | 5.56° C | 69% | 980.2 hPa | 0 mm | 3.13 m/s, 313° | - | - |
| 1778048119 | 5.56° C | 69% | 980.2 hPa | 0 mm | 3.13 m/s, 308° | - | - |
| 1778047247 | 5.56° C | 69% | 980.2 hPa | 0 mm | 2.68 m/s, 298° | - | - |
| 1778046320 | 5.56° C | 65% | 980.7 hPa | 0 mm | 2.68 m/s, 297° | - | - |
| 1778045434 | 5.56° C | 66% | 980.6 hPa | 0 mm | 3.13 m/s, 296° | - | - |
| 1778044519 | 6.11° C | 66% | 980.6 hPa | 0 mm | 2.68 m/s, 296° | - | - |
| 1778043648 | 6.11° C | 66% | 980.6 hPa | 0 mm | 3.13 m/s, 288° | - | - |
| 1778042720 | 6.11° C | 64% | 980.9 hPa | 0 mm | 3.13 m/s, 282° | - | - |
| 1778041834 | 6.11° C | 65% | 980.5 hPa | 0 mm | 3.58 m/s, 286° | - | - |
| 1778040919 | 6.67° C | 65% | 980.5 hPa | 0 mm | 3.13 m/s, 284° | - | - |
| 1778040049 | 6.67° C | 65% | 980.5 hPa | 0 mm | 3.13 m/s, 277° | - | - |
| 1778039117 | 6.67° C | 63% | 980.1 hPa | 0 mm | 2.68 m/s, 276° | - | - |
| 1778037319 | 6.67° C | 63% | 980 hPa | 0 mm | 2.68 m/s, 278° | - | - |
| 1778036448 | 7.22° C | 63% | 980 hPa | 0 mm | 3.13 m/s, 272° | - | - |
| 1778035519 | 7.22° C | 59% | 980.2 hPa | 0 mm | 2.68 m/s, 282° | - | - |
| 1778034637 | 7.22° C | 58% | 980.2 hPa | 0 mm | 2.68 m/s, 287° | - | - |
| 1778033718 | 7.22° C | 58% | 980.2 hPa | 0 mm | 2.68 m/s, 290° | - | - |
| 1778032838 | 7.22° C | 58% | 980.2 hPa | 0 mm | 2.68 m/s, 285° | - | - |
* Rain latest hour (hover to see other rain measurements)
** Current wind speed in m/s (hover to see current wind gust speed)